Simultaneous Nadir Overpasses (SNOs) Predictions

Prediction of SNOs between LANDSAT-8 and METOP-A Satellite Orbit:

Table of predicted SNOs for the next 14.0 days since TLE Epoch: 10/5/2019
Index Date (LANDSAT-8) Time (LANDSAT-8) Lat,Lon (LANDSAT-8) SZA (LANDSAT-8 ) Date (METOP-A) Time (METOP-A) Lat,Lon (METOP-A) SZA (METOP-A ) Distance(km) Time Diff (sec)
1 10/07/2019 07:19:08 -81.48, -63.26 90.17 10/07/2019 07:17:57 -81.48, -63.24 90.20 0.31 71
2 10/07/2019 08:08:34 81.48, 104.48 89.87 10/07/2019 08:08:37 81.48, 104.41 89.86 1.26 3
3 10/10/2019 02:53:24 -81.47, 3.07 89.09 10/10/2019 02:52:21 -81.48, 3.22 89.10 2.61 63
4 10/10/2019 03:42:50 81.47, 170.79 90.93 10/10/2019 03:43:01 81.48, 170.86 90.95 1.25 11
5 10/12/2019 22:27:39 -81.48, 69.76 87.98 10/12/2019 22:26:45 -81.48, 69.68 88.02 1.38 54
6 10/12/2019 23:17:05 81.48,-122.55 92.04 10/12/2019 23:17:25 81.48,-122.70 92.03 2.65 20
7 10/15/2019 18:01:55 -81.47, 136.01 86.95 10/15/2019 18:01:09 -81.48, 136.12 86.96 1.85 46
8 10/15/2019 18:51:20 81.48, -56.31 93.07 10/15/2019 18:51:48 81.48, -56.26 93.09 0.74 28
9 10/18/2019 13:36:09 -81.48,-157.37 85.88 10/18/2019 13:35:32 -81.48,-157.44 85.91 1.31 37




NCC Satellite Simultaneous Nadir Overpasses (SNOs) Prediction Service
